Hourly Weather Konstantyna

Today, 4 July, Saturday

Time Temperature Precipitation Wind Pressure Humidity
00:00 +21°C° 0 mm 2 mps 712 mmHg 80%
01:00 +21°C° 0 mm 2 mps 712 mmHg 82%
02:00 +20°C° 0 mm 2 mps 712 mmHg 84%
03:00 +20°C° 0 mm 1 mps 712 mmHg 86%
04:00 +21°C° 0 mm 1 mps 712 mmHg 83%
05:00 +21°C° 0 mm 1 mps 713 mmHg 80%
06:00 +21°C° 0 mm 1 mps 713 mmHg 77%
07:00 +23°C° 0 mm 2 mps 713 mmHg 68%
08:00 +24°C° 0 mm 3 mps 714 mmHg 59%
09:00 +26°C° 0 mm 3 mps 714 mmHg 51%
10:00 +27°C° 0 mm 4 mps 714 mmHg 45%
11:00 +28°C° 0 mm 4 mps 714 mmHg 40%
12:00 +30°C° 0 mm 5 mps 714 mmHg 34%
13:00 +29°C° 0 mm 5 mps 714 mmHg 35%
14:00 +29°C° 0 mm 6 mps 714 mmHg 36%
15:00 +29°C° 0 mm 6 mps 714 mmHg 37%
16:00 +27°C° 0 mm 5 mps 713 mmHg 42%
17:00 +26°C° 0 mm 5 mps 713 mmHg 46%
18:00 +25°C° 0 mm 4 mps 713 mmHg 51%
19:00 +22°C° 0 mm 3 mps 713 mmHg 58%
20:00 +21°C° 0 mm 2 mps 713 mmHg 64%
21:00 +20°C° 0 mm 1 mps 713 mmHg 71%
22:00 +20°C° 0 mm 1 mps 713 mmHg 73%
23:00 +19°C° 0 mm 1 mps 713 mmHg 75%

Tomorrow, 5 July, Sunday

Time Temperature Precipitation Wind Pressure Humidity
00:00 +17°C° 0 mm 0 mps 713 mmHg 77%
01:00 +16°C° 0 mm 0 mps 712 mmHg 79%
02:00 +16°C° 0 mm 0 mps 712 mmHg 80%
03:00 +15°C° 0 mm 0 mps 712 mmHg 82%
04:00 +16°C° 0 mm 0 mps 712 mmHg 78%
05:00 +17°C° 0 mm 0 mps 712 mmHg 74%
06:00 +18°C° 0 mm 0 mps 713 mmHg 71%
07:00 +22°C° 0 mm 1 mps 713 mmHg 60%
08:00 +23°C° 0 mm 2 mps 713 mmHg 50%
09:00 +25°C° 0 mm 3 mps 714 mmHg 40%
10:00 +27°C° 0 mm 3 mps 714 mmHg 35%
11:00 +28°C° 0 mm 4 mps 714 mmHg 31%
12:00 +30°C° 0 mm 4 mps 714 mmHg 26%
13:00 +30°C° 0 mm 5 mps 713 mmHg 28%
14:00 +30°C° 0 mm 5 mps 713 mmHg 29%
15:00 +30°C° 0 mm 5 mps 712 mmHg 31%
16:00 +28°C° 0 mm 5 mps 712 mmHg 36%
17:00 +27°C° 0 mm 4 mps 711 mmHg 41%
18:00 +25°C° 0 mm 4 mps 711 mmHg 46%
19:00 +24°C° 0 mm 3 mps 711 mmHg 55%
20:00 +21°C° 0 mm 2 mps 711 mmHg 64%
21:00 +21°C° 0 mm 1 mps 711 mmHg 72%
22:00 +20°C° 0 mm 1 mps 711 mmHg 74%
23:00 +20°C° 0 mm 1 mps 710 mmHg 75%

Day after tomorrow, 6 July, Monday

Time Temperature Precipitation Wind Pressure Humidity
00:00 +19°C° 0 mm 1 mps 710 mmHg 76%
01:00 +19°C° 0 mm 1 mps 710 mmHg 75%
02:00 +19°C° 0 mm 1 mps 709 mmHg 73%
03:00 +19°C° 0 mm 1 mps 709 mmHg 71%
04:00 +20°C° 0 mm 1 mps 709 mmHg 67%
05:00 +21°C° 0 mm 1 mps 710 mmHg 63%
06:00 +22°C° 0 mm 1 mps 710 mmHg 59%
07:00 +23°C° 0 mm 2 mps 710 mmHg 54%
08:00 +25°C° 0 mm 3 mps 711 mmHg 50%
09:00 +27°C° 0 mm 4 mps 711 mmHg 46%
10:00 +28°C° 0 mm 5 mps 711 mmHg 42%
11:00 +29°C° 0 mm 5 mps 711 mmHg 39%
12:00 +32°C° 0 mm 6 mps 710 mmHg 36%
13:00 +30°C° 0 mm 6 mps 710 mmHg 37%
14:00 +30°C° 0 mm 6 mps 710 mmHg 37%
15:00 +30°C° 0 mm 7 mps 710 mmHg 38%
16:00 +29°C° 0 mm 6 mps 710 mmHg 42%
17:00 +28°C° 0 mm 5 mps 710 mmHg 45%
18:00 +27°C° 0 mm 5 mps 709 mmHg 49%
19:00 +25°C° 0 mm 3 mps 710 mmHg 56%
20:00 +24°C° 0 mm 2 mps 710 mmHg 63%
21:00 +22°C° 0 mm 1 mps 710 mmHg 69%
22:00 +22°C° 0 mm 1 mps 710 mmHg 71%
23:00 +21°C° 0 mm 1 mps 709 mmHg 73%

7 July, Tuesday

Time Temperature Precipitation Wind Pressure Humidity
00:00 +20°C° 0 mm 1 mps 709 mmHg 74%
01:00 +20°C° 0 mm 1 mps 709 mmHg 74%
02:00 +20°C° 0 mm 1 mps 709 mmHg 73%
03:00 +20°C° 0 mm 1 mps 708 mmHg 73%
04:00 +20°C° 0 mm 1 mps 709 mmHg 69%
05:00 +21°C° 0 mm 1 mps 709 mmHg 65%
06:00 +22°C° 0 mm 1 mps 709 mmHg 61%
07:00 +24°C° 0 mm 1 mps 710 mmHg 54%
08:00 +26°C° 0 mm 2 mps 710 mmHg 47%
09:00 +27°C° 0 mm 2 mps 711 mmHg 40%
10:00 +29°C° 0 mm 2 mps 711 mmHg 37%
11:00 +30°C° 0 mm 3 mps 711 mmHg 35%
12:00 +33°C° 0 mm 3 mps 711 mmHg 32%
13:00 +33°C° 0 mm 4 mps 710 mmHg 32%
14:00 +33°C° 0 mm 4 mps 710 mmHg 33%
15:00 +33°C° 0 mm 5 mps 710 mmHg 33%
16:00 +32°C° 0 mm 4 mps 710 mmHg 37%
17:00 +29°C° 0 mm 4 mps 710 mmHg 42%
18:00 +28°C° 0 mm 4 mps 710 mmHg 46%
19:00 +26°C° 0 mm 3 mps 710 mmHg 52%
20:00 +24°C° 0 mm 2 mps 710 mmHg 58%
21:00 +23°C° 0 mm 1 mps 710 mmHg 64%
22:00 +22°C° 0 mm 1 mps 710 mmHg 66%
23:00 +20°C° 0 mm 0 mps 710 mmHg 67%

8 July, Wednesday

Time Temperature Precipitation Wind Pressure Humidity
00:00 +19°C° 0 mm 0 mps 709 mmHg 69%
01:00 +19°C° 0 mm 0 mps 709 mmHg 71%
02:00 +18°C° 0 mm 0 mps 709 mmHg 73%
03:00 +18°C° 0 mm 0 mps 708 mmHg 74%
04:00 +19°C° 0 mm 0 mps 709 mmHg 70%
05:00 +20°C° 0 mm 0 mps 709 mmHg 66%
06:00 +22°C° 0 mm 1 mps 710 mmHg 62%
07:00 +25°C° 0 mm 1 mps 710 mmHg 52%
08:00 +27°C° 0 mm 2 mps 710 mmHg 42%
09:00 +29°C° 0 mm 2 mps 711 mmHg 32%
10:00 +31°C° 0 mm 3 mps 711 mmHg 26%
11:00 +34°C° 0 mm 3 mps 711 mmHg 21%
12:00 +35°C° 0 mm 4 mps 711 mmHg 16%
13:00 +35°C° 0 mm 4 mps 711 mmHg 17%
14:00 +35°C° 0 mm 5 mps 711 mmHg 19%
15:00 +35°C° 0 mm 5 mps 711 mmHg 20%
16:00 +34°C° 0 mm 5 mps 710 mmHg 26%
17:00 +32°C° 0 mm 4 mps 710 mmHg 31%
18:00 +29°C° 0 mm 3 mps 710 mmHg 37%
19:00 +27°C° 0 mm 3 mps 710 mmHg 44%
20:00 +25°C° 0 mm 2 mps 710 mmHg 51%
21:00 +24°C° 0 mm 1 mps 711 mmHg 58%
22:00 +23°C° 0 mm 1 mps 710 mmHg 56%
23:00 +23°C° 0 mm 1 mps 710 mmHg 55%

9 July, Thursday

Time Temperature Precipitation Wind Pressure Humidity
00:00 +23°C° 0 mm 1 mps 709 mmHg 53%
01:00 +22°C° 0 mm 1 mps 709 mmHg 52%
02:00 +22°C° 0 mm 1 mps 709 mmHg 50%
03:00 +22°C° 0 mm 1 mps 709 mmHg 49%
04:00 +23°C° 0 mm 1 mps 710 mmHg 45%
05:00 +23°C° 0 mm 0 mps 710 mmHg 41%
06:00 +24°C° 0 mm 0 mps 711 mmHg 37%
07:00 +27°C° 0 mm 0 mps 711 mmHg 30%
08:00 +30°C° 0 mm 0 mps 711 mmHg 23%
09:00 +34°C° 0 mm 1 mps 712 mmHg 17%
10:00 +36°C° 0 mm 1 mps 711 mmHg 15%
11:00 +37°C° 0 mm 1 mps 711 mmHg 13%
12:00 +40°C° 0 mm 2 mps 711 mmHg 10%
13:00 +40°C° 0 mm 2 mps 711 mmHg 11%
14:00 +40°C° 0 mm 3 mps 711 mmHg 12%
15:00 +40°C° 0 mm 3 mps 711 mmHg 12%
16:00 +40°C° 0 mm 4 mps 711 mmHg 15%
17:00 +37°C° 0 mm 4 mps 710 mmHg 19%
18:00 +36°C° 0 mm 5 mps 710 mmHg 22%
19:00 +34°C° 0 mm 4 mps 711 mmHg 26%
20:00 +31°C° 0 mm 3 mps 711 mmHg 31%
21:00 +29°C° 0 mm 2 mps 711 mmHg 36%
22:00 +29°C° 0 mm 2 mps 711 mmHg 36%
23:00 +28°C° 0 mm 1 mps 710 mmHg 37%
Show more